Location: Newark
(39.7199°N, 6.8858°W)
Time: 22:42:13
(UTC+00:00)

Envisat - Visible Passes

Search period start: 20 November 2019 00:00
Search period end: 30 November 2019 00:00
Orbit: 764 x 766 km, 98.1° (Epoch: 20 November)

Date Brightness Start Highest point End Pass type
(mag) Time Alt. Az. Time Alt. Az. Time Alt. Az.
20 Nov 2.9 18:19:00 10° SSE 18:24:03 73° ENE 18:29:07 10° N visible
20 Nov 6.1 20:01:41 10° WSW 20:03:34 12° W 20:05:29 10° WNW visible
21 Nov 5.4 06:29:15 10° NE 06:33:33 27° E 06:37:48 10° SSE visible
21 Nov 3.6 17:42:57 10° SE 17:47:27 33° ENE 17:51:57 10° N visible
21 Nov 5.0 19:22:08 10° SSW 19:26:27 28° W 19:30:47 10° NW visible
22 Nov 6.3 05:54:43 10° ENE 05:56:25 11° E 05:58:05 10° ESE visible
22 Nov 3.4 18:44:30 10° S 18:49:31 63° W 18:54:35 10° NNW visible
23 Nov 3.0 18:07:50 10° SSE 18:12:48 58° ENE 18:17:47 10° N visible
23 Nov 5.8 19:49:11 10° SW 19:52:10 16° W 19:55:10 10° NW visible
24 Nov 5.8 06:18:21 10° NE 06:22:11 21° E 06:25:59 10° SE visible
24 Nov 3.9 17:32:05 10° ESE 17:36:16 26° ENE 17:40:27 10° NNE visible
24 Nov 4.6 19:10:30 10° SSW 19:15:07 35° W 19:19:45 10° NNW visible
25 Nov 3.1 18:33:10 10° S 18:38:15 81° WSW 18:43:21 10° NNW visible
26 Nov 4.8 06:43:08 10° NNE 06:47:51 37° E 06:52:32 10° SSE visible
26 Nov 3.3 17:56:46 10° SE 18:01:34 45° ENE 18:06:24 10° N visible
26 Nov 5.5 19:37:07 10° SW 19:40:47 20° W 19:44:29 10° NW visible
27 Nov 6.0 06:07:36 10° NE 06:10:48 17° E 06:13:59 10° SE visible
27 Nov 4.1 18:58:57 10° S 19:03:47 45° W 19:08:39 10° NNW visible
28 Nov 2.9 18:21:55 10° SSE 18:26:58 80° ENE 18:32:05 10° N visible
28 Nov 6.2 20:05:25 10° WSW 20:06:34 11° W 20:07:43 10° WNW visible
29 Nov 5.2 06:32:05 10° NE 06:36:31 29° E 06:40:54 10° SSE visible
29 Nov 3.5 17:45:46 10° SE 17:50:22 36° ENE 17:54:59 10° N visible
29 Nov 5.2 19:25:16 10° SSW 19:29:25 25° W 19:33:36 10° NW visible
